Back to catalog

DIRECTV 5

TEMPO 1

AliveCommunicationsGEO
NORAD 27426·PAYLOAD·🇺🇸 United States

Launched May 7, 2002 from Baikonur Cosmodrome

Loading…

TLE

FreshSource: Space-Track

Epoch: Sep 14, 2026, 12:29 UTC

1 27426U 02023A   26257.52058617 -.00000064  00000-0  00000-0 0  9995
2 27426   5.1002  74.1521 0003230 108.7075 247.9655  1.00272991 89014

Track DIRECTV 5 in real time with AllMySat

Download on the App Store